YO3IQI-2 Weather Reports


Display with metric or nautical units.
time (UTC)temp
F
wind
direction
speed
MPH
gust
MPH
rain 1hr
in
rain 24hr
in
rain mn
in
humidity
%
barometer
mb
20210517131920 72 0 0.0 0.0 0.00 0.00 0.00 53 1004.3
20210517130917 73 0 0.0 0.0 0.00 0.00 0.00 52 1004.1
20210517125914 73 0 0.0 0.0 0.00 0.00 0.00 55 1004.1
20210517124911 74 0 0.0 0.0 0.00 0.00 0.00 55 1004.1
20210517122905 76 0 0.0 0.0 0.00 0.00 0.00 55 1004.1
20210517121902 76 0 0.0 0.0 0.00 0.00 0.00 54 1004.1
20210517120859 76 0 0.0 0.0 0.00 0.00 0.00 54 1004.3
20210517115856 76 0 0.0 0.0 0.00 0.00 0.00 55 1004.5
20210517114854 76 0 0.0 0.0 0.00 0.00 0.00 54 1004.5
20210517113851 76 0 0.0 0.0 0.00 0.00 0.00 55 1004.5
20210517112848 76 0 0.0 0.0 0.00 0.00 0.00 51 1004.5
20210517111845 76 0 0.0 0.0 0.00 0.00 0.00 51 1004.5
20210517110841 76 0 0.0 0.0 0.00 0.00 0.00 49 1004.5
20210517105839 76 0 0.0 0.0 0.00 0.00 0.00 50 1004.7
20210517104836 76 0 0.0 0.0 0.00 0.00 0.00 51 1004.7
20210517103833 76 0 0.0 0.0 0.00 0.00 0.00 48 1004.5
20210517102830 76 0 0.0 0.0 0.00 0.00 0.00 48 1004.6
20210517101827 76 0 0.0 0.0 0.00 0.00 0.00 49 1004.7
20210517100825 75 0 0.0 0.0 0.00 0.00 0.00 51 1004.9
20210517095822 75 0 0.0 0.0 0.00 0.00 0.00 54 1004.9
20210517094818 75 0 0.0 0.0 0.00 0.00 0.00 54 1004.9
20210517093815 75 0 0.0 0.0 0.00 0.00 0.00 54 1004.9
20210517092854 74 0 0.0 0.0 0.00 0.00 0.00 58 1004.9
20210517092812 74 0 0.0 0.0 0.00 0.00 0.00 58 1004.9
20210517091810 73 0 0.0 0.0 0.00 0.00 0.00 58 1004.9
20210517090807 73 0 0.0 0.0 0.00 0.00 0.00 63 1004.9
20210517085804 72 0 0.0 0.0 0.00 0.00 0.00 61 1005.1
20210517084801 71 0 0.0 0.0 0.00 0.00 0.00 64 1005.3
20210517082755 70 0 0.0 0.0 0.00 0.00 0.00 72 1005.2
20210517081752 68 0 0.0 0.0 0.00 0.00 0.00 67 1005.3
20210517080749 67 0 0.0 0.0 0.00 0.00 0.00 68 1005.3
20210517075746 67 0 0.0 0.0 0.00 0.00 0.00 73 1005.3
20210517074744 66 0 0.0 0.0 0.00 0.00 0.00 72 1005.4
20210517073741 65 0 0.0 0.0 0.00 0.00 0.00 75 1005.5
20210517072738 64 0 0.0 0.0 0.00 0.00 0.00 79 1005.3
20210517071735 64 0 0.0 0.0 0.00 0.00 0.00 78 1005.8
20210517070731 63 0 0.0 0.0 0.00 0.00 0.00 81 1005.3
20210517065729 62 0 0.0 0.0 0.00 0.00 0.00 82 1005.6
20210517064726 62 0 0.0 0.0 0.00 0.00 0.00 83 1005.8
20210517063723 61 0 0.0 0.0 0.00 0.00 0.00 84 1005.6
20210517062755 60 0 0.0 0.0 0.00 0.00 0.00 87 1005.7
20210517062720 60 0 0.0 0.0 0.00 0.00 0.00 87 1005.7
20210517061717 59 0 0.0 0.0 0.00 0.00 0.00 85 1005.4
20210517060715 59 0 0.0 0.0 0.00 0.00 0.00 86 1005.5
20210517055712 58 0 0.0 0.0 0.00 0.00 0.00 91 1005.7
20210517054708 58 0 0.0 0.0 0.00 0.00 0.00 94 1005.8
20210517053705 58 0 0.0 0.0 0.00 0.00 0.00 95 1005.7
20210517052737 57 0 0.0 0.0 0.00 0.00 0.00 96 1005.5
20210517052702 57 0 0.0 0.0 0.00 0.00 0.00 96 1005.5
20210517051700 56 0 0.0 0.0 0.00 0.00 0.00 95 1005.6
20210517050657 56 0 0.0 0.0 0.00 0.00 0.00 95 1005.8
20210517045728 55 0 0.0 0.0 0.00 0.00 0.00 95 1005.3
20210517045654 55 0 0.0 0.0 0.00 0.00 0.00 95 1005.3
20210517044651 55 0 0.0 0.0 0.00 0.00 0.00 95 1005.3
20210517043648 55 0 0.0 0.0 0.00 0.00 0.00 95 1005.4
20210517042645 54 0 0.0 0.0 0.00 0.00 0.00 95 1005.3
20210517041642 54 0 0.0 0.0 0.00 0.00 0.00 95 1005.3
20210517040639 54 0 0.0 0.0 0.00 0.00 0.00 95 1005.3
20210517035636 54 0 0.0 0.0 0.00 0.00 0.00 95 1005.3
20210517034634 54 0 0.0 0.0 0.00 0.00 0.00 95 1005.3
20210517033631 54 0 0.0 0.0 0.00 0.00 0.00 95 1005.3
20210517032628 54 0 0.0 0.0 0.00 0.00 0.00 95 1005.1
20210517031625 54 0 0.0 0.0 0.00 0.00 0.00 95 1004.9
20210517030653 54 0 0.0 0.0 0.00 0.00 0.00 95 1004.9
20210517030621 54 0 0.0 0.0 0.00 0.00 0.00 95 1004.9
20210517025618 54 0 0.0 0.0 0.00 0.00 0.00 95 1004.9
20210517024616 54 0 0.0 0.0 0.00 0.00 0.00 95 1004.9
20210517023613 54 0 0.0 0.0 0.00 0.00 0.00 95 1004.9
20210517021607 54 0 0.0 0.0 0.00 0.00 0.00 95 1004.9
20210517020605 55 0 0.0 0.0 0.00 0.00 0.00 95 1004.9
20210517015602 55 0 0.0 0.0 0.00 0.00 0.00 95 1004.9
20210517014558 55 0 0.0 0.0 0.00 0.00 0.00 95 1004.9
20210517013555 55 0 0.0 0.0 0.00 0.00 0.00 95 1004.9
20210517012552 55 0 0.0 0.0 0.00 0.00 0.00 95 1004.9
20210517011550 55 0 0.0 0.0 0.00 0.00 0.00 95 1004.9
20210517010547 55 0 0.0 0.0 0.00 0.00 0.00 95 1004.9
20210517005544 55 0 0.0 0.0 0.00 0.00 0.00 95 1004.9
20210517004541 56 0 0.0 0.0 0.00 0.00 0.00 95 1004.9
20210517003538 56 0 0.0 0.0 0.00 0.00 0.00 95 1004.9
20210517002535 56 0 0.0 0.0 0.00 0.00 0.00 95 1004.9
20210517001532 56 0 0.0 0.0 0.00 0.00 0.00 95 1004.9
20210517000529 56 0 0.0 0.0 0.00 0.00 0.00 95 1005.3
20210516235526 57 0 0.0 0.0 0.00 0.00 0.00 96 1005.3
20210516234523 57 0 0.0 0.0 0.00 0.00 0.00 96 1005.3
20210516233521 57 0 0.0 0.0 0.00 0.00 0.00 96 1005.3
20210516232518 57 0 0.0 0.0 0.00 0.00 0.00 96 1005.4
20210516231515 57 0 0.0 0.0 0.00 0.00 0.00 96 1005.5
20210516230511 58 0 0.0 0.0 0.00 0.00 0.00 96 1005.3
20210516225508 58 0 0.0 0.0 0.00 0.00 0.00 96 1005.8
20210516224506 58 0 0.0 0.0 0.00 0.00 0.00 96 1005.7
20210516223503 58 0 0.0 0.0 0.00 0.00 0.00 96 1005.7
20210516222500 58 0 0.0 0.0 0.00 0.00 0.00 96 1005.8
20210516221457 58 0 0.0 0.0 0.00 0.00 0.00 96 1005.8
20210516220454 58 0 0.0 0.0 0.00 0.00 0.00 96 1005.7
20210516215452 58 0 0.0 0.0 0.00 0.00 0.00 96 1005.8
20210516214448 58 0 0.0 0.0 0.00 0.00 0.00 96 1005.8
20210516213445 58 0 0.0 0.0 0.00 0.00 0.00 96 1005.5
20210516212442 58 0 0.0 0.0 0.00 0.00 0.00 96 1005.5
20210516211439 58 0 0.0 0.0 0.00 0.00 0.00 96 1005.5
20210516210437 58 0 0.0 0.0 0.00 0.00 0.00 96 1005.7
20210516205434 59 0 0.0 0.0 0.00 0.00 0.00 95 1005.8
20210516204431 59 0 0.0 0.0 0.00 0.00 0.00 94 1005.8
20210516203428 59 0 0.0 0.0 0.00 0.00 0.00 92 1005.9
20210516202424 59 0 0.0 0.0 0.00 0.00 0.00 93 1006.1
20210516201422 60 0 0.0 0.0 0.00 0.00 0.00 96 1006.1
20210516200419 60 0 0.0 0.0 0.00 0.00 0.00 95 1006.2
20210516195416 60 0 0.0 0.0 0.00 0.00 0.00 95 1006.1
20210516194413 60 0 0.0 0.0 0.00 0.00 0.00 93 1006.1
20210516193411 60 0 0.0 0.0 0.00 0.00 0.00 93 1006.0
20210516192408 60 0 0.0 0.0 0.00 0.00 0.00 93 1006.2
20210516191405 60 0 0.0 0.0 0.00 0.00 0.00 94 1006.2
20210516190401 60 0 0.0 0.0 0.00 0.00 0.00 92 1006.2
20210516185358 60 0 0.0 0.0 0.00 0.00 0.00 92 1006.3
20210516184356 60 0 0.0 0.0 0.00 0.00 0.00 92 1006.5
20210516183353 61 0 0.0 0.0 0.00 0.00 0.00 87 1006.3
20210516182350 61 0 0.0 0.0 0.00 0.00 0.00 87 1006.3
20210516181347 61 0 0.0 0.0 0.00 0.00 0.00 86 1006.2
20210516180344 62 0 0.0 0.0 0.00 0.00 0.00 87 1006.2
20210516175342 62 0 0.0 0.0 0.00 0.00 0.00 87 1006.2
20210516174338 63 0 0.0 0.0 0.00 0.00 0.00 92 1006.2
20210516173335 63 0 0.0 0.0 0.00 0.00 0.00 89 1006.2
20210516172332 63 0 0.0 0.0 0.00 0.00 0.00 96 1006.1
20210516171329 63 0 0.0 0.0 0.00 0.00 0.00 96 1005.7
20210516170327 64 0 0.0 0.0 0.00 0.00 0.00 96 1005.8
20210516165324 64 0 0.0 0.0 0.00 0.00 0.00 96 1005.7
20210516164321 64 0 0.0 0.0 0.00 0.00 0.00 96 1005.5
20210516163318 65 0 0.0 0.0 0.00 0.00 0.00 94 1005.4
20210516162452 65 0 0.0 0.0 0.00 0.00 0.00 94 1005.3
20210516162315 65 0 0.0 0.0 0.00 0.00 0.00 94 1005.3
20210516161312 66 0 0.0 0.0 0.00 0.00 0.00 93 1005.3
20210516160309 67 0 0.0 0.0 0.00 0.00 0.00 93 1005.3
20210516155306 67 0 0.0 0.0 0.00 0.00 0.00 81 1005.3
20210516154303 67 0 0.0 0.0 0.00 0.00 0.00 88 1005.3
20210516153300 67 0 0.0 0.0 0.00 0.00 0.00 91 1005.3
20210516152258 67 0 0.0 0.0 0.00 0.00 0.00 95 1005.3
20210516151255 66 0 0.0 0.0 0.00 0.00 0.00 95 1005.3
20210516150251 65 0 0.0 0.0 0.00 0.00 0.00 96 1005.3
20210516145248 64 0 0.0 0.0 0.00 0.00 0.00 96 1005.3
20210516144245 64 0 0.0 0.0 0.00 0.00 0.00 96 1005.5
20210516143243 65 0 0.0 0.0 0.00 0.00 0.00 96 1005.5
20210516135232 68 0 0.0 0.0 0.00 0.00 0.00 80 1006.1
20210516134228 73 0 0.0 0.0 0.00 0.00 0.00 69 1005.8
20210516133225 75 0 0.0 0.0 0.00 0.00 0.00 63 1005.6